Location: Berlin
(52.5200°N, 13.4050°E)
Time: 23:52:31
(UTC+02:00)

ISS - Visible Passes

Search period start: 30 March 2020 00:00
Search period end: 09 April 2020 00:00
Orbit: 416 x 423 km, 51.6° (Epoch: 31 March)

Date Brightness Start Highest point End Pass type
(mag) Time Alt. Az. Time Alt. Az. Time Alt. Az.
30 Mar -3.4 20:57:40 10° W 21:00:58 54° SSW 21:02:43 24° SE visible
30 Mar -1.0 22:34:56 10° W 22:35:41 13° WSW 22:35:41 13° WSW visible
31 Mar -3.6 20:10:15 10° W 20:13:36 65° SSW 20:16:57 10° ESE visible
31 Mar -2.2 21:47:16 10° W 21:50:04 24° SSW 21:50:11 24° SSW visible
01 Apr -2.5 20:59:43 10° W 21:02:47 33° SSW 21:04:43 18° SSE visible
02 Apr -2.9 20:12:14 10° W 20:15:27 43° SSW 20:18:39 10° SE visible
02 Apr -1.2 21:50:07 10° WSW 21:51:37 13° SW 21:52:14 12° SSW visible
03 Apr -1.5 21:02:03 10° W 21:04:24 18° SW 21:06:44 10° S visible
